www.pogodaiklimat.ru

Погода и климат >> Архив погоды >> Россия >> Амурская область >> Белогорск


ПОГОДА в Белогорске

  • Прогноз погоды в Белогорске
  • Монитор погоды в Белогорске

АРХИВ ПОГОДЫ в Белогорске

Время (UTC), дата Ветер
(напр.,м/с)
 
Видим.   Явления Облачность Т
(С)
Тd
(С)
f
(%)
Тe
(С)
Тes
(С)
Комфортность P
(гПа)
Po
(гПа)
Тmin
(С)
Tmax
(С)
R
(мм)
R24
(мм)
S
(см)
00 16.07 штиль 0 20 км слаб. ливневой дождь {гроза} 10/10 600 м
[Cb calv]
+19.9 +17.5 86 +22 +22 комфорт 1007.8 987.3 +18.7 1
03 16.07 С 1 4000 м ливневой дождь 10/10 600 м
[Cb calv]
+19.5 +18.3 93 +23 +23 комфорт 1007.5 987.0
06 16.07 ЮЗ 1 50 км {ливн. осадки} 10/9 600 м
[Cb calv Ci fib]
+22.7 +19.1 80 +29 +30 очень
душно
1006.2 985.9
09 16.07 ЮВ 2 50 км 8/5 600 м
[Cb calv Ac trans Ci fib]
+23.2 +18.1 73 +29 +30 душно 1005.4 985.1
12 16.07 ЮВ 2 50 км {ливн. осадки} 10/6 600 м
[Cb calv Ac trans Ci fib]
+20.5 +18.4 88 +25 +25 комфорт 1006.1 985.6 +24.3 10
15 16.07 В 1 50 км 8/4 600 м
[Cb calv Ac trans Ci fib]
+19.6 +18.0 90 +23 +23 комфорт 1005.5 985.0
18 16.07 В 2 50 км {ливн. осадки} 10/10 600 м
[Cb calv]
+19.3 +18.2 93 +22 +22 комфорт 1004.5 984.0
21 16.07 В 2 50 км 8/4 600 м
[Cb calv Ac trans Ci fib]
+18.8 +17.5 92 +21 +21 комфорт 1004.4 983.9
00 17.07 В 2 50 км 10/8 600 м
[Cb cap Ac trans Ci fib]
+21.3 +18.5 84 +26 +27 душно 1004.7 984.3 +18.8 0.3
03 17.07 В 1 20 км слаб. ливневой дождь 8/8 600 м
[Cb cap]
+21.6 +20.4 93 +27 +31 душно 1004.1 983.8
06 17.07 ЮВ 1 50 км в посл. час ливневой дождь 6/6 600 м
[Cb cap]
+24.0 +19.0 74 +29 +35 душно 1002.8 982.7
09 17.07 В 1 50 км 8/4 600 м
[Cb cap Ac trans]
+25.4 +17.4 61 +29 +30 душно 1002.5 982.4
12 17.07 штиль 0 50 км 4/4 600 м
[Cb cap]
+21.1 +18.7 86 +25 +25 комфорт 1003.8 983.5 +26.6 6
15 17.07 штиль 0 50 км 3/0
[Ci fib]
+19.2 +18.0 93 +21 +21 комфорт 1003.9 983.3
18 17.07 СЗ 1 50 км 3/0
[Ci fib]
+18.3 +18.2 99 +20 +20 1003.8 983.1
21 17.07 СЗ 1 50 км в посл. час гроза {ливн. осадки} 10/10 600 м
[Cb calv]
+18.6 +17.8 95 +21 +21 комфорт 1003.9 983.3
00 18.07 СЗ 1 50 км {гроза, ливн. осадки} 10/10 600 м
[Cb cap]
+21.3 +19.0 87 +26 +26 душно 1003.7 983.3 +18.0 2
03 18.07 СЗ 2 50 км 8/8 600 м
[Cb cap]
+24.2 +19.0 73 +29 +32 душно 1003.6 983.4
09 18.07 С 1 50 км 8/4 600 м
[Sc Ac trans Ci fib]
+25.1 +16.7 60 +29 +30 душно 1002.1 982.0
12 18.07 штиль 0 50 км 4/0
[Ac trans Ci fib]
+21.1 +16.9 77 +25 +25 комфорт 1003.1 982.8 +27.3
15 18.07 З 1 50 км 4/3 600 м
[Sc Ci fib]
+18.4 +16.2 87 +20 +20 1003.4 982.9
18 18.07 штиль 0 50 км 3/0
[Ci fib]
+16.7 +15.2 91 +17 +17 1003.6 982.9
21 18.07 штиль 0 50 км 8/0
[Ac trans Ci fib]
+18.4 +15.8 85 +19 +20 1003.6 983.1
00 19.07 Ю 1 50 км 10/0
[Cs]
+24.7 +18.9 70 +30 +38 очень
душно
1003.7 983.6 +16.4
03 19.07 Ю 2 50 км 8/0
[Ci fib]
+28.8 +17.7 51 +33 +47 очень
душно
1003.2 983.3
06 19.07 Ю 2 50 км 6/0
[Ci fib]
+29.8 +15.8 43 +33 +43 душно 1002.8 983.0
09 19.07 Ю 2 50 км 10/0
[Cs]
+28.7 +17.9 52 +33 +35 очень
душно
1003.2 983.4
12 19.07 Ю 1 50 км 10/6 600 м
[Sc Ac trans]
+23.4 +17.6 70 +29 +29 душно 1004.4 984.2 +30.0
15 19.07 Ю 1 50 км 10/8 600 м
[Sc Ac trans Ci fib]
+21.4 +17.0 76 +25 +25 комфорт 1005.4 985.0
18 19.07 ЮВ 2 50 км 8/4 600 м
[Sc Ac trans Ci fib]
+20.3 +16.5 79 +24 +24 комфорт 1005.1 984.6
21 19.07 ЮВ 2 50 км слаб. ливневой дождь 10/8 600 м
[Cb cap Ac trans]
+19.9 +17.5 86 +23 +23 комфорт 1005.1 984.6
00 20.07 ЮВ 3 20 км слаб. ливневой дождь 10/10 600 м
[Cb cap]
+21.2 +19.1 88 +26 +26 душно 1004.6 984.2 +19.0 0.6
03 20.07 Ю 2 10 км слаб. ливневой дождь 10/10 600 м
[Sc]
+23.4 +21.3 88 +31 +31 очень
душно
1004.7 984.5
09 20.07 ЮВ 3
{13}
50 км {ливн. осадки} 10/10 600 м
[Cb calv]
+24.5 +19.3 73 +30 +30 очень
душно
1003.0 982.9
12 20.07 ЮВ 2 50 км {ливн. осадки} 10/10 600 м
[Sc diur, vesp]
+23.1 +20.6 86 +30 +30 очень
душно
1003.4 983.2 +27.8 3
15 20.07 ЮВ 3 50 км в посл. час ливневой дождь 10/10 600 м
[Cb calv]
+22.9 +19.7 82 +29 +29 очень
душно
1002.9 982.7
18 20.07 ЮВ 2 50 км {ливн. осадки} 10/6 600 м
[Cb calv Ac trans Ci fib]
+22.3 +19.7 85 +28 +28 душно 1002.2 982.0
21 20.07 ЮВ 3 50 км 10/5 600 м
[Sc Ac As Ci fib]
+22.2 +19.9 87 +28 +28 душно 1002.4 982.1
00 21.07 ЮВ 3 50 км 10/4 600 м
[Cb cap Ac trans]
+24.4 +21.1 82 +31 +33 очень
душно
1002.3 982.3 +22.0 0.0
03 21.07 ЮВ 4 50 км в посл. час ливневой дождь {гроза} 10/6 600 м
[Cb cap Ac trans]
+26.4 +22.3 78 +34 +36 очень
душно
1001.5 981.6
09 21.07 ЮВ 2 10 км слаб. ливневой дождь {гроза} 10/10 600 м
[Cb cap]
+23.0 +21.6 92 +31 +31 очень
душно
1001.8 981.7
12 21.07 ЮЗ 1 50 км {гроза, ливн. осадки} 10/6 600 м
[Cb cap Ac trans]
+22.9 +21.1 90 +30 +30 очень
душно
1000.5 980.4 +26.7 10
15 21.07 Ю 1 50 км {ливн. осадки} 10/3 600 м
[Cb cap Ac trans]
+22.1 +20.7 92 +28 +28 душно 1000.9 980.7
21 21.07 ЮВ 2 10 км слаб. ливневой дождь 10/10 600 м
[Cb cap]
+20.8 +19.7 93 +26 +26 душно 998.7 978.4
00 22.07 Ю 1 50 км в посл. час ливневой дождь 10/10 600 м
[Cb cap]
+21.8 +20.4 92 +28 +28 душно 998.0 977.8 +20.7 2
03 22.07 Ю 2 50 км 10/10 600 м
[Cb cap]
+22.9 +20.2 85 +30 +30 очень
душно
996.8 976.7
12 22.07 Ю 2 50 км 4/4 600 м
[Cb cap]
+21.8 +19.9 89 +27 +27 душно 995.4 975.3 +24.8

 

Местоположение метеостанции Белогорск (Амурская область, Россия): широта 50.92 долгота 128.40 высота над уровнем моря 178 м.

В архиве по умолчанию представлена погода в Белогорске за последнюю неделю. Архивные данные за месяц целиком и за предыдущие месяцы, начиная с января 2011 года, Вы можете получить, выбрав интересующий диапазон дат из раскрывающегося списка и нажав кнопку "Ввод!".


*Определитесь, кто Вы:
робот инопланетянин человек

Внимание! Время в таблицах - всемирное. Для получения местного времени необходимо прибавить поправку, которая равна 9 ч.

Смотрите также архив погоды в соседних городах и на ближайших метеорологических станциях:

Погода в Свободном (Амурская область, Россия) (63 км)
Погода в Братолюбовке (Амурская область, Россия) (65 км)
Погода в Екатеринославке (Амурская область, Россия) (74 км)
Погода в Сергеевке (Амурская область, Россия) (79 км)
Погода в Мазаново (Амурская область, Россия) (84 км)
Погода в Благовещенске (Амурская область, Россия) (100 км)
Погода в Айгуне (Хэйлунцзян, Китай) (100 км)
Погода в Завитае (Амурская область, Россия) (114 км)
Погода в Шимановске (Амурская область, Россия) (130 км)
Погода в Саскале (Амурская область, Россия) (132 км)

Пояснения к столбцам:

Ветер - указаны скорость ветра в м/с - средняя за 10 мин, порывы в срок и между сроками (в фигурных скобках) и направление, откуда дует ветер: С - северный, СВ - северо-восточный, В - восточный, ЮВ - юго-восточный, Ю - южный, ЮЗ - юго-западный, З - западный, СЗ - северо-западный.
Видимость - горизонтальная дальность видимости в метрах или километрах. При видимости от 1 до 10 км при отсутствии осадков обычно наблюдается дымка, при ухудшении видимости до 1 км и менее - туман. В сухую погоду видимость может ухудшаться дымом, пылью или мглою.
Явления - указаны атмосферные явления, наблюдавшиеся в срок или в последний час перед сроком; фигурными скобками обозначены явления, наблюдавшиеся между сроками (за 1-3 часа до срока); квадратными скобками обозначены град или гололедные отложения с указанием их диаметра в мм.
Облачность - указаны через наклонную черту общая и нижняя облачность в баллах и высота нижней границы облаков в метрах; квадратными скобками обозначены формы облаков: Ci - перистые, Cs - перисто-слоистые, Cc - перисто-кучевые, Ac - высококучевые, As - высокослоистые, Sc - слоисто-кучевые, Ns - слоисто-дождевые, Cu - кучевые, Cb - кучево-дождевые. Подробнее классификацию облаков см. в Атласе облаков (PDF).
T - Температура воздуха - температура, измеренная на высоте 2 м над землей.
Td - Температура точки росы - температура, при понижении до которой содержащийся в воздухе водяной пар достигнет насыщения.
f - Относительная влажность воздуха - влажноcть воздуха, измеренная на высоте 2 м над землей.
Te - Эффективная температура - температура, которую ощущает одетый по сезону человек в тени. Характеристика душности погоды. При расчете учитывается влияние влажности воздуха и скорости ветра на теплоощущения человека.
Tes - Эффективная температура на солнце - температура, которую ощущает человек, с поправкой на солнечный нагрев. Характеристика знойности погоды. Зависит от высоты солнца над горизонтом, облачности и скорости ветра. Ночью, в пасмурную погоду, а также при ветре 12 м/с и более поправка равна нулю.
P - Атмосферное давление - приведенное к уровню моря атмосферное давление.
Po - Атмосферное давление - измеренное на уровне метеостанции атмосферное давление.
Tmin - Минимальная температура - минимум температуры воздуха на высоте 2 м над землей.
Tmax - Максимальная температура - максимум температуры воздуха на высоте 2 м над землей.
R - Количество осадков - Количество выпавших осадков за период времени, мм. При наведении курсора мыши на число - период времени, за который выпало указанное количество осадков.
R24 - Количество осадков - Количество выпавших осадков за 24 часа, мм.
S - Снежный покров - Высота снежного покрова, см. При наведении курсора мыши на число - состояние снежного покрова и степень покрытия местности в баллах.